{"data":{"norad_id":55009,"epoch":"2026-09-21T22:35:06.501408Z","epoch_age_seconds":40791,"freshness":"FRESH","line1":"1 55009U 23001A   26264.94104747  .00010944  00000+0  23386-3 0  9993","line2":"2 55009  97.3073 329.9068 0006714 117.3661 242.8272 15.44990780207159","mean_motion":15.4499078,"eccentricity":0.0006714,"inclination_deg":97.3073,"raan_deg":329.9068,"arg_perigee_deg":117.3661,"mean_anomaly_deg":242.8272,"bstar":0.00023386,"rev_number":20715,"period_min":93.204439705459,"perigee_km":426.83323681404,"apogee_km":435.97709003108,"semimajor_km":6809.5421634226,"source":"CELESTRAK","updated_at":"2026-09-22T09:00:25.263854Z"}}